Terminal Aerodrome Forecast
Issued by NWS Albany, NY

Home | Current Version | Previous Version | Text Only | Print | Product List | Glossary On
Versions: 1 2 3 4 5 6 7 8 9 10 11 12 13 14 15 16 17 18 19 20 21 22 23 24 25
119
FTUS41 KALY 062117 AAA
TAFALB
TAF AMD
KALB 062117Z 0621/0718 VRB03KT P6SM VCSH OVC050
      TEMPO 0621/0624 5SM -SHRA BR OVC030
     FM070400 VRB03KT P6SM VCSH BKN025 OVC035
     FM071400 VRB05KT P6SM VCSH SCT025 BKN040=

USA.gov is the U.S. government's official web portal to all federal, state and local government web resources and services.